Celtic Voyager — EIQN — position and weather

sailwx.info

Track history (hours):
 
Tides and Currents Weather Stations Pressure Air Temp Water Temp Dewpoint Dewpoint Depression Visibility Wind Speed Wind Dir Waves Ship Positions

Oceanographic research ship Celtic Voyager (Ireland)

Detailed information on ship capabilities available from University of Delaware's Ocean Information Center.

Last reported at 2017-Mar-30 00:32 UTC. Time now 2017-Mar-30 00:54 UTC.
Position N 52°16' W 007°06'.

Length 31 m; beam 8 m.

Type: Ship. MMSI: 250089000.

Date/timePositionNaut miles runAvg speedWind from/ knotsBaromVisibWave heightAir tempDewpointWater temp
2017-Mar-30 00:32N 52°16' W 007°06'0 0.0
2017-Mar-29 23:29N 52°16' W 007°06'0 0.0
2017-Mar-29 22:31N 52°16' W 007°06'0 0.0
2017-Mar-29 21:28N 52°16' W 007°06'0 0.0
2017-Mar-29 20:31N 52°16' W 007°06'0 0.0
2017-Mar-29 19:28N 52°16' W 007°06'0 0.0
2017-Mar-29 18:32N 52°16' W 007°06'0 0.0
2017-Mar-29 17:29N 52°16' W 007°06'0 0.0
2017-Mar-29 16:32N 52°16' W 007°06'0 0.0
2017-Mar-29 15:31N 52°16' W 007°06'0 0.0
2017-Mar-29 14:28N 52°16' W 007°06'0 0.0
2017-Mar-29 13:31N 52°16' W 007°06'0 0.0
2017-Mar-29 12:25N 52°16' W 007°06'0 0.0
2017-Mar-29 11:31N 52°16' W 007°06'0 0.0
2017-Mar-29 10:31N 52°16' W 007°06'0 0.0
2017-Mar-29 09:28N 52°16' W 007°06'0 0.0
2017-Mar-29 08:28N 52°16' W 007°06'0 0.0
2017-Mar-29 07:33N 52°16' W 007°06'4 4.3
2017-Mar-29 06:33N 52°16' W 006°59'9 8.5
2017-Mar-29 05:33N 52°08' W 006°59'10 9.5
2017-Mar-29 04:33N 52°01' W 007°10'9 9.3
2017-Mar-29 03:33N 51°55' W 007°21'18 7.4
2017-Mar-29 01:07N 51°43' W 007°43'7 4.0
2017-Mar-28 23:28N 51°40' W 007°52'4 3.7
2017-Mar-28 22:30N 51°39' W 007°58'4 3.8
2017-Mar-28 21:33N 51°37' W 008°03'3 3.1
2017-Mar-28 20:33N 51°37' W 008°08'4 3.8
2017-Mar-28 19:33N 51°39' W 008°03'4 3.6
2017-Mar-28 18:33N 51°39' W 008°08'3 3.0
2017-Mar-28 17:33N 51°41' W 008°05'1 0.7
2017-Mar-28 16:33N 51°42' W 008°06'4 4.2
2017-Mar-28 15:32N 51°41' W 008°13'2 1.9
2017-Mar-28 14:33N 51°43' W 008°14'2 2.0
2017-Mar-28 13:33N 51°45' W 008°14'2 1.6
2017-Mar-28 12:33N 51°45' W 008°16'2 1.9
2017-Mar-28 11:33N 51°47' W 008°15'1 1.0
2017-Mar-28 10:33N 51°46' W 008°14'1 1.2
2017-Mar-28 09:30N 51°46' W 008°16'2 1.6
2017-Mar-28 08:33N 51°46' W 008°13'1 0.6
2017-Mar-28 07:33N 51°47' W 008°14'2 1.7
2017-Mar-28 06:33N 51°48' W 008°16'7 7.1
2017-Mar-28 05:33N 51°54' W 008°23'2 0.1
2017-Mar-27 06:28N 51°54' W 008°26'6 6.2
2017-Mar-27 05:33N 51°50' W 008°19'5 5.0
2017-Mar-27 04:33N 51°46' W 008°16'7 7.1
2017-Mar-27 03:33N 51°40' W 008°22'19 9.1
2017-Mar-27 01:28N 51°32' W 008°50'8 9.1
2017-Mar-27 00:33N 51°29' W 009°03'9 8.8
2017-Mar-26 23:33N 51°27' W 009°16'8 8.1
2017-Mar-26 22:34N 51°25' W 009°29'8 7.6
2017-Mar-26 21:34N 51°25' W 009°41'7 7.3
2017-Mar-26 20:34N 51°27' W 009°53'8 7.9
2017-Mar-26 19:33N 51°30' W 010°04'9 7.5
2017-Mar-26 18:20N 51°34' W 010°18'92 7.8
2017-Mar-26 06:33N 53°02' W 009°35'35 1.5
2017-Mar-25 07:30N 53°23' W 010°23'10 9.1
2017-Mar-25 06:21N 53°33' W 010°24'8 8.7
2017-Mar-25 05:24N 53°42' W 010°25'10 8.7
2017-Mar-25 04:15N 53°52' W 010°26'8 8.8
2017-Mar-25 03:20N 53°60' W 010°27'10 8.0
2017-Mar-25 02:03N 54°09' W 010°22'5 8.9
2017-Mar-25 01:32N 54°13' W 010°17'9 8.6
2017-Mar-25 00:30N 54°19' W 010°07'71 7.9
2017-Mar-24 15:27N 55°14' W 008°46'3 3.4
2017-Mar-24 14:29N 55°12' W 008°41'1 1.1
2017-Mar-24 13:14N 55°13' W 008°41'29 1.0
2017-Mar-23 08:17N 54°46' W 009°00'11 0.8
2017-Mar-22 19:16N 54°37' W 008°51'5 3.2
2017-Mar-22 17:33N 54°35' W 008°41'4 3.6
2017-Mar-22 16:31N 54°33' W 008°36'5 4.2
2017-Mar-22 15:18N 54°32' W 008°45'41 3.2
2017-Mar-22 02:32N 54°22' W 009°53'10 8.5
2017-Mar-22 01:23N 54°17' W 010°08'7 8.4
2017-Mar-22 00:30N 54°12' W 010°17'8 8.1
2017-Mar-21 23:33N 54°06' W 010°25'24 7.7
2017-Mar-21 20:29N 53°43' W 010°31'8 8.3
2017-Mar-21 19:30N 53°35' W 010°28'8 7.8
2017-Mar-21 18:31N 53°27' W 010°25'9 7.6
2017-Mar-21 17:25N 53°19' W 010°20'7 7.6
2017-Mar-21 16:31N 53°14' W 010°13'  
Track history (hours):
 
Tides and Currents Weather Stations Pressure Air Temp Water Temp Dewpoint Dewpoint Depression Visibility Wind Speed Wind Dir Waves Ship Positions

Oceanographic research ship Celtic Voyager (Ireland)

Detailed information on ship capabilities available from University of Delaware's Ocean Information Center.

Last reported at 2017-Mar-30 00:32 UTC. Time now 2017-Mar-30 00:54 UTC.
Position N 52°16' W 007°06'.

Length 31 m; beam 8 m.

Type: Ship. MMSI: 250089000.

Date/timePositionNaut miles runAvg speedWind from/ knotsBaromVisibWave heightAir tempDewpointWater temp
2017-Mar-30 00:32N 52°16' W 007°06'0 0.0
2017-Mar-29 23:29N 52°16' W 007°06'0 0.0
2017-Mar-29 22:31N 52°16' W 007°06'0 0.0
2017-Mar-29 21:28N 52°16' W 007°06'0 0.0
2017-Mar-29 20:31N 52°16' W 007°06'0 0.0
2017-Mar-29 19:28N 52°16' W 007°06'0 0.0
2017-Mar-29 18:32N 52°16' W 007°06'0 0.0
2017-Mar-29 17:29N 52°16' W 007°06'0 0.0
2017-Mar-29 16:32N 52°16' W 007°06'0 0.0
2017-Mar-29 15:31N 52°16' W 007°06'0 0.0
2017-Mar-29 14:28N 52°16' W 007°06'0 0.0
2017-Mar-29 13:31N 52°16' W 007°06'0 0.0
2017-Mar-29 12:25N 52°16' W 007°06'0 0.0
2017-Mar-29 11:31N 52°16' W 007°06'0 0.0
2017-Mar-29 10:31N 52°16' W 007°06'0 0.0
2017-Mar-29 09:28N 52°16' W 007°06'0 0.0
2017-Mar-29 08:28N 52°16' W 007°06'0 0.0
2017-Mar-29 07:33N 52°16' W 007°06'4 4.3
2017-Mar-29 06:33N 52°16' W 006°59'9 8.5
2017-Mar-29 05:33N 52°08' W 006°59'10 9.5
2017-Mar-29 04:33N 52°01' W 007°10'9 9.3
2017-Mar-29 03:33N 51°55' W 007°21'18 7.4
2017-Mar-29 01:07N 51°43' W 007°43'7 4.0
2017-Mar-28 23:28N 51°40' W 007°52'4 3.7
2017-Mar-28 22:30N 51°39' W 007°58'4 3.8
2017-Mar-28 21:33N 51°37' W 008°03'3 3.1
2017-Mar-28 20:33N 51°37' W 008°08'4 3.8
2017-Mar-28 19:33N 51°39' W 008°03'4 3.6
2017-Mar-28 18:33N 51°39' W 008°08'3 3.0
2017-Mar-28 17:33N 51°41' W 008°05'1 0.7
2017-Mar-28 16:33N 51°42' W 008°06'4 4.2
2017-Mar-28 15:32N 51°41' W 008°13'2 1.9
2017-Mar-28 14:33N 51°43' W 008°14'2 2.0
2017-Mar-28 13:33N 51°45' W 008°14'2 1.6
2017-Mar-28 12:33N 51°45' W 008°16'2 1.9
2017-Mar-28 11:33N 51°47' W 008°15'1 1.0
2017-Mar-28 10:33N 51°46' W 008°14'1 1.2
2017-Mar-28 09:30N 51°46' W 008°16'2 1.6
2017-Mar-28 08:33N 51°46' W 008°13'1 0.6
2017-Mar-28 07:33N 51°47' W 008°14'2 1.7
2017-Mar-28 06:33N 51°48' W 008°16'7 7.1
2017-Mar-28 05:33N 51°54' W 008°23'2 0.1
2017-Mar-27 06:28N 51°54' W 008°26'6 6.2
2017-Mar-27 05:33N 51°50' W 008°19'5 5.0
2017-Mar-27 04:33N 51°46' W 008°16'7 7.1
2017-Mar-27 03:33N 51°40' W 008°22'19 9.1
2017-Mar-27 01:28N 51°32' W 008°50'8 9.1
2017-Mar-27 00:33N 51°29' W 009°03'9 8.8
2017-Mar-26 23:33N 51°27' W 009°16'8 8.1
2017-Mar-26 22:34N 51°25' W 009°29'8 7.6
2017-Mar-26 21:34N 51°25' W 009°41'7 7.3
2017-Mar-26 20:34N 51°27' W 009°53'8 7.9
2017-Mar-26 19:33N 51°30' W 010°04'9 7.5
2017-Mar-26 18:20N 51°34' W 010°18'92 7.8
2017-Mar-26 06:33N 53°02' W 009°35'35 1.5
2017-Mar-25 07:30N 53°23' W 010°23'10 9.1
2017-Mar-25 06:21N 53°33' W 010°24'8 8.7
2017-Mar-25 05:24N 53°42' W 010°25'10 8.7
2017-Mar-25 04:15N 53°52' W 010°26'8 8.8
2017-Mar-25 03:20N 53°60' W 010°27'10 8.0
2017-Mar-25 02:03N 54°09' W 010°22'5 8.9
2017-Mar-25 01:32N 54°13' W 010°17'9 8.6
2017-Mar-25 00:30N 54°19' W 010°07'71 7.9
2017-Mar-24 15:27N 55°14' W 008°46'3 3.4
2017-Mar-24 14:29N 55°12' W 008°41'1 1.1
2017-Mar-24 13:14N 55°13' W 008°41'29 1.0
2017-Mar-23 08:17N 54°46' W 009°00'11 0.8
2017-Mar-22 19:16N 54°37' W 008°51'5 3.2
2017-Mar-22 17:33N 54°35' W 008°41'4 3.6
2017-Mar-22 16:31N 54°33' W 008°36'5 4.2
2017-Mar-22 15:18N 54°32' W 008°45'41 3.2
2017-Mar-22 02:32N 54°22' W 009°53'10 8.5
2017-Mar-22 01:23N 54°17' W 010°08'7 8.4
2017-Mar-22 00:30N 54°12' W 010°17'8 8.1
2017-Mar-21 23:33N 54°06' W 010°25'24 7.7
2017-Mar-21 20:29N 53°43' W 010°31'8 8.3
2017-Mar-21 19:30N 53°35' W 010°28'8 7.8
2017-Mar-21 18:31N 53°27' W 010°25'9 7.6
2017-Mar-21 17:25N 53°19' W 010°20'7 7.6
2017-Mar-21 16:31N 53°14' W 010°13'  

Dump ship's entire track history